TIMESTAMP,CO2_1_1_1,H2O_1_1_1,TAU_1_1_1,TAU_SSITC_TEST_1_1_1,H_1_1_1,H_SSITC_TEST_1_1_1,LE_1_1_1,LE_SSITC_TEST_1_1_1,FC_1_1_1,FC_SSITC_TEST_1_1_1,WD_0_0_1,WS_0_0_1,WS_MAX_0_0_1,U_SIGMA_0_0_1,V_SIGMA_0_0_1,W_SIGMA_0_0_1,USTAR_0_0_1,MO_LENGTH_0_0_1,ZL_0_0_1,FETCH_MAX_0_0_1,FETCH_70_0_0_1,FETCH_80_0_0_1,FETCH_90_0_0_1,PA_0_0_1,RH_0_0_1,TA_0_0_1,VPD_0_0_1,T_SONIC_0_0_1,T_SONIC_SIGMA_0_0_1
[yyyymmddHHMMSS],[mmolCO2 mol-1],[mmolH2O mol-1],[kg m-1 s-2],[#],[W m-2],[#],[W m-2],[#],[umolCO2 m-2 s-1],[#],[Decimal degrees],[m s-1],[m s-1],[m s-1],[m s-1],[m s-1],[m s-1],[m],[#],[m],[m],[m],[m],[kPa],[%],[deg C],[hPa],[deg C],[deg C]
20191005003000,405.09093885670666,7.6311264370079046,0.72316157480627674,0,-30.088893429204418,0,34.355971021357114,0,3.4039278546242513,0,121.78263178259743,3.1868147768513886,9.3489266226125256,1.4804870006898145,1.0722261206381694,0.85625353475888499,0.78110874995975965,1332.1560967608152,1.42625928344277172E-002,116.34352022061370,212.71306082590601,254.56320613482160,318.68292651185658,95.100835081597239,80.180000000000007,5.5741379310344996,1.7944322143577223,5.4124043663873067,7.82836832099596674E-002
20191005010000,405.65029161548546,7.6455414331874803,0.29647962418062795,0,-23.383970558157881,0,22.711942706935645,0,2.7076903687210896,0,127.19057598787970,2.4139193963462255,6.2297552602413493,0.90814153284261012,0.82967987869140558,0.57453146088685603,0.50009254750157495,449.80163257121768,4.22408426830058331E-002,112.05833200520415,204.87837007745324,245.18708231686156,306.94513210309776,95.088838347933915,80.819999999999993,5.4850000000000136,1.7257744066533327,5.3394748749816472,8.90027310530496496E-002
20191005013000,406.42827369049331,7.7618014848075942,0.24447614015159225,0,-18.459452815051048,0,15.253255981561860,0,2.5603221421711782,0,131.53790921114575,2.2941685265620015,5.2121963975812253,0.84905031548581189,0.73480059971493417,0.55826858113573985,0.45409509343174764,426.58377723939606,4.45399028602471297E-002,106.14457385462156,194.06613408176355,232.24759731362622,290.74643233419488,95.084711190146280,82.363333333333330,5.4293333333333180,1.5807831361169189,5.2983732747165391,8.12699068587134504E-002
20191005020000,406.82151779686194,7.8345009105898962,0.32853207814429453,0,-19.503916454507280,0,18.189200393901167,0,2.3069687840654529,0,132.53018893232723,2.5432232137884703,6.4658686432846029,1.1167358232483715,0.80096065148724216,0.59598187684509807,0.52653442451095811,629.38193998193185,3.01883463649202377E-002,113.39916933129481,207.32984834767871,248.12087569003481,310.61789326972439,95.074617655781068,82.533333333333331,5.5323333333333267,1.5767870658970971,5.4093978126232400,9.81998451390459770E-002
20191005023000,407.16212008954864,7.8393830729024598,0.30848185579941934,0,-21.262980267098985,0,23.575449035231035,0,2.6293812191471528,0,135.79023519476505,2.6507015816725326,7.7776496460764255,1.1137383088603896,0.90778956323315751,0.63146899287895453,0.51033220391003298,525.57294614293869,3.61510236389386355E-002,105.59799092699375,193.06680616637618,231.05165703081846,289.24925701555617,95.056699003689246,82.136666666666670,5.6080000000000041,1.6210877466648150,5.4800433680216543,9.07024151981905002E-002
20191005030000,407.57011856513179,7.8404387763241434,0.26701867390269363,0,-23.987591927084964,0,18.707685800877282,0,3.2092090554855619,0,139.79316264461755,2.1784682470327073,5.8546396555544584,0.98281889396022648,0.73180228676565806,0.55437487225799387,0.47480945012682502,375.20645899783295,5.06387871113640337E-002,110.61844608834498,202.24579939337519,242.03656757595465,303.00106150116164,95.056855885199653,82.069999999999993,5.6216666666666697,1.6286814452737941,5.5041382132636159,9.43578700490636108E-002
20191005033000,407.96786898995123,7.9381515330421113,0.17195786274967431,0,-21.994138976286813,0,17.090450354869873,0,3.0642335563629670,0,138.60477293081587,2.0268148661690137,5.0653792527805557,0.79825831105447143,0.64538505962952564,0.47329627768725008,0.38103801804182208,211.48966529484264,8.98389052415949491E-002,105.27447306820157,192.47531233977512,230.34378999000825,288.36309147902057,95.052341252561476,83.159999999999997,5.6093333333333248,1.5283622044710807,5.4938871069397237,9.77558249128249734E-002
20191005040000,408.65524519920859,8.0197949492892864,0.16572580067623771,0,-18.882462509665775,0,13.580812607552616,0,3.2352552083161741,0,141.28135620179424,1.8108501708152474,5.1477145100660255,0.75376702315109623,0.62290474329931134,0.48011725682798512,0.37405163259121249,233.05232425423122,8.15267561085267350E-002,102.54684202968970,187.48833286807434,224.37564925471176,280.89168748377233,95.058592073349701,84.120000000000005,5.5923333333333289,1.4395354202716464,5.4929876996300777,9.46229012391604368E-002
20191005043000,408.92839439226913,8.0223894590741889,0.23884521947211196,0,-16.740257025299009,0,14.391600080760343,0,2.5765679554676897,0,130.64735519983512,2.0722442701993296,5.8365624232144375,0.84647278478457355,0.55374271233574357,0.49090536839992122,0.44910889053186720,454.85753139832241,4.17713211026543296E-002,116.61059104261368,213.20135146639188,255.14756532031348,319.41447486950892,95.017308533203121,84.393333333333331,5.5439999999999827,1.4100189816266357,5.4332872263590843,8.98382340518518868E-002
20191005050000,409.27146769004378,8.0808039772993876,0.28164939912214321,0,-21.543322734970278,0,21.091037968639874,0,4.9228138328529267,0,128.01150115013871,2.1502756248871489,6.2174290518063069,0.99816259975222776,0.74281698667452534,0.59200135902368090,0.48774481732649561,452.57404751193633,4.19820802904057114E-002,107.23853380036347,196.06624176320943,234.64121537368726,293.74295810833951,94.967737948784716,85.519999999999996,5.4499999999999886,1.2997146505606167,5.3498253623114920,7.87451018661157465E-002
20191005053000,408.52216699376100,8.0476500544793268,0.48102957875372571,0,-22.333796191553727,0,19.247225034398117,0,4.3383979974870357,0,125.31701215277377,2.9691878436825947,7.7244249939123026,1.2737992342045636,0.96255638779863406,0.71172767907409717,0.63764144749461704,975.03555606385248,1.94864688593527971E-002,114.67402236626097,209.66068628911827,250.91029340162123,314.10991324028356,94.916040599911796,84.843333333333334,5.4973333333333585,1.3649324303655750,5.3786055829327779,7.60715140276882196E-002
20191005060000,408.29301994684505,8.0101910585730405,0.54761936118740850,0,-17.591606090468161,0,27.603496156051687,0,4.7749257134309309,0,127.99894432803812,2.8627842555559520,7.9954881041984134,1.4021195280735943,0.99262153043289802,0.77209460009182829,0.68033038132191870,1503.2024084079853,1.26396817179946896E-002,113.16037557523410,206.89325720223741,247.59838759587601,309.96380017653030,94.889505730034728,84.936666666666667,5.4103333333333126,1.3483523989584296,5.2900430187649476,6.28469878048877190E-002
20191005063000,407.44399796222882,7.8876956459778791,0.79184807051178252,0,-19.198801267088310,0,23.548774033112551,0,3.2965634404960249,0,128.84358400940934,3.5431499502962414,9.5663743761227451,1.7106238531740636,1.1474382840525372,0.96216299728451460,0.81828093963347193,2395.9896318734418,7.92991745341725847E-003,109.99626212332916,201.10824866992834,240.67520989449744,301.29680322855643,94.857982443793418,83.320000000000007,5.4603333333333239,1.4982603697313823,5.3209896282619980,7.17169024296451380E-002
20191005070000,407.43446913952903,7.9170307309849290,1.2444305715887214,0,-16.092265943416013,0,25.439809192090305,0,3.2067256346256880,0,129.42815738870451,3.9410691743473976,11.155553323824437,1.9342266727705453,1.4152971939160812,1.0865011190762557,1.0258872686654328,5631.3617643007983,3.37396189327557414E-003,119.59429681469246,218.65651722190037,261.67600546088244,327.58730723261215,94.820767313649498,84.006666666666661,5.3899999999999864,1.4295768666143760,5.2447951455722546,6.65852178873643924E-002
20191005073000,407.79542800775823,8.0197011409940373,0.70767805177235188,0,-13.420246372596177,0,16.488143516569465,0,2.7187523099307991,0,133.38434525269909,3.3270943510756497,11.191199157450066,1.5816696567889730,1.2334002725557380,0.94503381568373668,0.77372295044802464,2896.3839725448161,6.55990372136545583E-003,106.70024191122459,195.08207251047094,233.46341613849376,292.26849322861881,94.796644264973963,85.153333333333336,5.3766666666666652,1.3258516467497861,5.2574569007026071,6.42688097405351433E-002
20191005080000,407.91980139528522,8.1027691857883379,0.65729864293597529,0,-19.094756712928845,0,15.373062727971408,0,3.3235220626975810,0,131.85825650123866,3.6352591085919634,9.9506892472734236,1.6477003637327610,1.0633254294516772,0.83691607137217783,0.74601498002524014,1824.0074215614986,1.04166242831043171E-002,114.21086274658899,208.81388278717355,249.89688588642557,312.84124728656906,94.745061759507493,85.426666666666662,5.4710000000000036,1.3100020289205179,5.3577298215922156,7.13164127400258974E-002
20191005083000,408.73113439848652,8.2496257975139269,0.63523033491077485,0,-15.777759828613252,0,10.276360919279480,0,3.0882789288339541,0,138.78410629330412,2.9367385492837830,9.7485415098932311,1.3793710412965940,1.0698453184662846,0.85936866364027220,0.73350534527818578,2098.1270564961919,9.05569562204179383E-003,110.31483393551630,201.69069954587474,241.37225483297584,302.16942077716999,94.732296464843770,86.730000000000004,5.5096666666666465,1.1960528510000734,5.4165432942708662,6.75465330859119223E-002
20191005090000,409.26348156289885,8.3388372737852343,0.51025546736607319,0,-6.8754344831535077,0,6.2402032809859529,1,2.1420211909284226,0,122.31563409432715,3.0070542845311383,8.6563730216465782,1.3618564858773281,1.0032664605300428,0.77895967759877638,0.65759873316539541,3467.4760506473144,5.47948990057279487E-003,109.34821356676042,199.92340922403437,239.25725968997929,299.52169783259200,94.658197520833312,87.973333333333329,5.4483333333333235,1.0793801697141805,5.3562490191989696,5.38312124736663386E-002
20191005093000,408.87741647567645,8.3637539127767262,0.88835082792981690,0,-13.819470166829788,0,12.176372367814070,0,3.5049851937782255,0,119.42158838376650,3.9601044980287075,9.9152307133684303,1.7633530808217661,1.3092869194773920,1.0195120401356654,0.86784355619459108,3963.0632327781768,4.79427122001297671E-003,110.07638717043866,201.25474281061761,240.85052596577688,301.51627814603648,94.586875550781230,88.829999999999998,5.3410000000000082,0.99504361250540685,5.2378218239678631,6.49322679720221591E-002
20191005100000,408.81760438033012,8.4650134086328404,0.79344891039493148,0,-18.016759497831281,0,5.4781218383870085,1,2.1766627925063453,0,121.65646081794173,4.0659558252806214,11.079730825041191,1.7844768425640747,1.2513403538813437,0.99529479385477881,0.82042673065462923,2566.7257830584222,7.40242690723286103E-003,107.28162801567819,196.14503173299983,234.73550684428727,293.86099984049775,94.505117587239567,90.349999999999994,5.2576666666666938,0.85467030103055097,5.1728003565470431,9.07225960174462137E-002
20191005103000,409.06400662007042,8.4541754045226831,0.72062476934718811,0,-17.373928786271374,0,14.535272490327410,0,4.0348201643938344,0,135.08816610078605,2.7654497019799771,8.5568581884230053,1.4953130388572118,1.1549380545158932,0.90318965339989510,0.78193683243107770,2304.4808523595107,8.24480705949293992E-003,111.57555949221683,203.99570795131663,244.13076118692862,305.62274339604693,94.511131781684028,89.826666666666668,5.3236666666666679,0.90516694924948526,5.2523672858344526,6.42974824963792879E-002
20191005110000,409.04609104596648,8.4101359357797385,0.96350461361824946,0,-14.681141934018186,0,10.220458987503610,0,2.3583536691351967,0,139.39750073496464,3.5596309418380425,10.048836588545770,1.7526305780782958,1.2651092635153971,0.97548716823520010,0.90444073005637959,4220.0633947348842,4.50230203264366611E-003,117.86415325392132,215.49326299182377,257.89039805388404,322.84817597556685,94.506397541015616,88.333333333333329,5.4890000000000327,1.0500328206651091,5.3990193964640412,6.22171123120693198E-002
20191005113000,409.70333485053504,8.4776278407992773,0.77526918829980884,0,-11.625789856541497,0,5.8937068153612628,1,2.0254195090041760,0,133.63806471614743,3.6375396931341930,10.952796839518452,1.6679282766093741,1.2597219416668815,0.96080737383695269,0.81147024260494971,3847.8833584389276,4.93777961286961421E-003,109.38654786035809,199.99349653882678,239.34113630523584,299.62670140173191,94.470781898400602,88.963333333333338,5.4963333333333253,0.99383712477226138,5.4098469158913645,5.46440543922421459E-002
20191005120000,410.50168131783437,8.5693900378584704,0.71384128494193499,0,-5.0979091848730826,0,2.4361077552682358,1,1.2852669537831747,0,129.02217618650906,3.3508682398583165,9.1821779839951994,1.5502079190848697,1.2312473836351849,0.90805757220797290,0.77878721382413074,7754.9609001013441,2.45004459013477456E-003,110.73865450885630,202.46557872457925,242.29958730298145,303.33033098834301,94.434883511935766,90.040000000000006,5.4726666666666688,0.89541154695110325,5.3982424104478923,4.72014513126217672E-002
20191005123000,411.16810140402652,8.7141649367240124,0.66544899434947102,0,-9.7992096268162712,0,11.806814314223653,1,5.0404507479052638,0,127.71026957586787,2.8708121062408090,8.1978970796478929,1.4263409527034203,0.97628819784799703,0.80729729914041948,0.75206329923883941,3632.8802928873697,5.23000992826521890E-003,118.31276843248180,216.31347461670507,258.87198188389499,324.07700245176591,94.420502186536410,91.269999999999996,5.5163333333333071,0.78721752568745162,5.4623653403176036,4.93341716697492869E-002
20191005130000,411.22498550618900,8.8334812812451826,0.64891730404455350,0,-6.8076162111031495,0,6.5887505127905683,0,2.5812726507066022,0,128.73896963630440,2.9196739224786601,8.5016867442413222,1.4649871815465745,0.99929935686602989,0.79782739050765139,0.74296401928384403,5040.8055600946063,3.76923881976582451E-003,118.27745514341765,216.24891066169991,258.79471531961798,323.98027388207521,94.391006554904507,91.683333333333337,5.6426666666666847,0.75655044370795399,5.6002996478611067,6.99718892998002634E-002
20191005133000,411.34894105412974,8.9116029676507225,0.38697374635135900,0,-4.5687229004433068,0,4.6104141332928643,1,1.8794942724115691,0,128.99988925841581,2.5569371042216216,7.5874412317187430,1.1774897035919742,0.92055306371811774,0.67175413504228565,0.57395097704862974,3462.0958792224756,5.48800514567697548E-003,110.40442002850425,201.85449149587561,241.56827196407914,302.41481096507238,94.364016341145827,91.709999999999994,5.7613333333333117,0.76035527454214957,5.7249015375773524,4.21252781585229608E-002
20191005140000,411.05177742290994,8.9828467519619082,0.35724440764609355,0,0.39920679952985288,2,5.3795251088500269,0,0.68970191034905770,0,120.62114786938551,2.7614080400572028,6.5752139073447333,1.0941101850727175,0.88665215360847671,0.68767156377557570,0.55178935829215958,-35191.422551283511,-5.39904289811297369E-004,104.99502067551772,191.96438423917968,229.73233954645323,287.59762808103881,94.302904007655769,91.483333333333334,5.9026666666666756,0.78882961345040259,5.8680021331476837,6.37977389782714149E-002
20191005143000,410.71149122400442,9.0867792885898009,0.58249370467019901,0,-6.2605138141169574,1,12.615446270343567,0,1.6032022047254870,0,121.85220573050135,2.9641694269000993,7.9718560186396044,1.4772656603085614,1.0042714625225182,0.80882723974662984,0.70505108985667564,4678.8974309578252,4.06078574714780101E-003,112.18809024677040,205.11560952730494,245.47099734653307,307.30056002966347,94.232479250434025,91.543333333333337,6.0486666666666338,0.79122420853929154,5.9957546412150009,8.23438685187470876E-002
20191005150000,411.06716472855106,9.3334806276186288,0.41426084137619784,0,-12.624445133255039,0,5.6727019232761817,0,1.8294067980614344,0,123.73931366057600,2.7901320257546089,7.1919705545265860,1.2457669085551724,0.96879794594475577,0.72166732118908317,0.59441321663577718,1390.1976955867726,1.36671209140369829E-002,107.21511944546552,196.02343285483053,234.58998404390545,293.67882256278341,94.206746373914925,95.716666666666669,5.7876666666666665,0.39358308138094117,5.8566236394246971,0.14209468959523305
20191005153000,410.94016944394934,9.5002367260529326,0.59693020178164347,0,-2.7759882917435479,2,0.13979052943739231,2,2.0953878935418895,0,125.52153154708081,2.8088612586454533,6.9294670573634605,1.2725829206099992,0.94050355365011407,0.80529337381768862,0.71361553526458799,10937.272338135250,1.73717901617501504E-003,113.67449567447807,207.83323271385106,248.72329821018204,311.37205477889194,94.175836649187843,97.689999999999998,5.7440000000000282,0.21161783348399354,5.7822019435395760,9.89286602739125470E-002
20191005160000,410.25126391151798,9.6177100171719694,0.61512538165056541,0,-7.9931169101524935,0,4.6198766896675254,1,0.61552015736549048,1,124.92878354902132,3.6080316653221676,8.9856282695817136,1.4763421909855134,1.1499024917269414,0.87461456579274854,0.72485416784205026,3979.0336001375072,4.77502879074542114E-003,107.74622111846577,196.99445609926579,235.75205086469737,295.13359232654955,94.114638444636228,97.823333333333338,5.8923333333333403,0.20146277197605286,5.8343589663174384,7.08852921987581513E-002
20191005163000,409.09342591329766,9.8973735649087384,1.0041492515617843,0,-16.517804615542079,2,-14.419083830546738,2,2.0931202766948513,1,116.32674317634331,4.0135476597936774,11.711673994010777,1.9867066004165321,1.3589075108962925,1.0464117852401675,0.92754614568361782,4029.7602568844245,4.71492068728914665E-003,113.70019828830691,207.88022528935841,248.77953632099309,311.44245822017035,93.950937279079866,98.140000000000001,6.2350000000000136,0.17628057135395922,6.2113101730346330,0.15808098906662094
20191005170000,407.86293587727607,10.084983318514292,1.6760901249850726,0,11.809317797381109,1,14.575280285324077,1,-1.1475002743681162,1,123.11506927236826,5.2378311270150357,15.239981617860378,2.4482624548041638,1.8189306566906001,1.3639426003753614,1.2000146729196242,-12193.973548783892,-1.55814672911889942E-003,113.02311423078169,206.64229968731792,247.29805554596103,309.58782008873425,93.820478018012167,97.373333333333335,6.6009999999999991,0.25530200783176610,6.6917199732463359,0.12957341929243785
20191005173000,407.40669263624142,10.242330152392851,1.4806202071571544,0,-20.408577380793709,1,7.6958886163957017,0,0.59582586926416248,1,128.23657557451747,4.4643330357524524,13.048716021392517,2.1860027235183903,1.7056600109825211,1.2851070575683416,1.1286321976518996,5869.0589671777725,3.23731625568186160E-003,112.86139173825609,206.34661939223759,246.94420175055095,309.14483712669977,93.790229422960053,97.040000000000006,6.8713333333333253,0.29309861854782188,6.8803528385001300,7.94364796144053503E-002
20191005180000,407.16386519096108,10.405791254866189,1.3704689588616816,0,-7.8562441917346932,1,16.287764558445080,0,-0.30875113418814132,0,130.48968872329203,4.7775503052522055,13.521986476455220,2.2360361340903063,1.7174598065339772,1.3216610568486640,1.0869983681962245,13612.858422415975,1.39573919087508810E-003,107.08827888049044,195.79152784833272,234.31245298049268,293.33138660442467,93.711399570258010,96.200000000000003,7.2166666666666401,0.38529425853546401,7.2413681315445046,0.14622098654536114
20191005183000,407.02876660828434,10.516716209603297,1.4669897102320635,0,-6.1601083802929386,1,9.5230854285851017,1,-0.21995138822781257,2,126.57679036660164,4.9280554750496730,13.638572999719973,2.2950178080576018,1.7563884927603246,1.3071780428167770,1.1258401876492206,19270.018634999655,9.85987629793505993E-004,111.11392835893253,203.15169900997432,243.12069804703333,304.35826420335047,93.576450084418411,95.833333333333329,7.4063333333333503,0.42799171669532937,7.4560527263217864,8.38803057662888263E-002
20191005190000,406.76766154416140,10.591152113139573,1.9486283825004793,0,3.4999712652623689,0,22.813449647872474,0,0.18157663491033924,1,120.81859576682251,5.6842841668875197,15.702651620316312,2.6672589079193334,1.9760357096356100,1.4164824096419346,1.2992532893554052,-52054.954395832261,-3.64998878983192822E-004,116.85330798277124,213.64511544359760,255.67863746212748,320.07931417174717,93.395002552300340,95.153333333333336,7.5853333333333239,0.50396742776402681,7.6227060589260986,9.65597983631719947E-002
20191005193000,406.88369161315836,10.608292842918457,1.2387139129364280,0,-1.8496589290267003,1,6.4215919608647853,0,0.16912691942689154,0,127.10774124853177,4.7476350830550000,14.964920723500210,2.2867128696058630,1.8304945137077813,1.3315216267345049,1.0364327615424376,49980.545858850499,3.80147909021595902E-004,102.47294697770919,187.35322914543590,224.21396460468580,280.68927748813832,93.341416584517447,94.413333333333327,7.7149999999999750,0.58607850761381430,7.7636785790282943,7.83149971858739524E-002
20191005200000,407.34804517378188,10.801823007418481,0.68548806426588837,0,-28.148231333075280,0,2.7938620048564959,2,1.3971640393225024,0,149.08281318798970,3.3830144170741727,10.761603527787296,1.7045934963098621,1.3727027746449283,0.97671960240865685,0.77092128324225206,1352.2401050019728,1.40507591290322514E-002,103.62081533074458,189.45189858861895,226.72553592052103,283.83346674166972,93.398769273220481,95.586666666666673,7.8079999999999927,0.46593367843079481,7.7435981487698200,0.16287396636541765
20191005203000,407.36185654407899,10.948631831345839,1.0332123019329356,0,-38.678113388140858,0,2.6680744931924418,1,1.9757102973308351,0,136.26537471555494,3.9011115472296010,12.993292260018000,1.9762128247049968,1.4460087605054004,1.0745764547978960,0.94705096280078083,1823.5187469797506,1.04194157759382698E-002,113.17844517885318,206.92629420065759,247.63792444521781,310.01329562029304,93.329182509765644,96.010000000000005,7.9303333333333512,0.42476646194192424,7.8162414915296949,0.13527952904693347
20191005210000,407.15725969002040,10.977698826002165,1.4726093047572106,0,-26.101850631554047,1,9.2007591345292621,0,2.1914157234733693,0,136.73122856095557,5.2687627825719430,14.863616388393813,2.3272408194731029,1.8612320290367261,1.3379357728992389,1.1316239813634124,4606.1764990894380,4.12489621354196305E-003,109.51368713214119,200.22594767663725,239.61932094834597,299.97495556431522,93.222909697916677,95.060000000000002,8.0986666666666451,0.53196074316453290,8.1361220575968218,0.14593560722049329
20191005213000,407.49139225936023,11.080095634797349,1.6015325000696419,0,-24.708247369397000,0,-1.1431111392062259,2,1.2166281155346226,1,139.33115654109488,4.9818230584961078,14.728492223716035,2.3411876588930856,1.7904435773224487,1.3988504214155271,1.1809421977785424,5527.1241502295625,3.43759240494188227E-003,109.35050433135731,199.92759747231938,239.26227195348289,299.52797259172166,93.145128940113565,94.920000000000002,8.2446666666666601,0.55249215935457419,8.3361548260272684,0.10482317403111348
20191005220000,407.88789345391262,11.211725838033619,1.9951040231281112,0,-29.828186561768774,0,5.7942912910578368,1,2.7291770288273831,0,139.40681510319925,5.2216471180664428,15.817182771043807,2.7093130841757982,2.0508179865600660,1.5110419740704708,1.3189026077929822,6375.2310263489362,2.98028415307189385E-003,112.30623257087815,205.33161137533560,245.72949639098402,307.62417015870358,93.090586243055554,94.890000000000001,8.4146666666666761,0.56220560030142452,8.5209200490315880,0.10347238460913853
20191005223000,408.23200773341551,11.359121023218798,1.7449201799525693,0,-18.148166453036875,1,-6.3346052575604777,1,2.1617477997636749,0,141.80536935799253,5.2328678512652855,14.842942518860106,2.6131695798943144,2.0903572807544211,1.5532265367953788,1.2339184644079875,8578.1634867600569,2.21492631019745657E-003,104.15886259698362,190.43562059267811,227.90279991327427,285.30726156136939,93.052011526692709,95.536666666666662,8.5009999999999764,0.49394228859408484,8.5997825228373586,0.13481673453541548